Weather in Karaga

Russia / Kamchatka Krai     59°06′34″N   163°07′10″E
temp.,
°C
wind,
m/s
gust,
m/s
humid.,
%
clouds,
%
prec.,
mm/h
press.,
hPa
HPBL,
m
18 august, thu
thu1800:00+11ne91092100 1.1 1002713
03:00+11ne111293100 1.1 1002841
06:00+11ne131491100 2.1 1001863
09:00+10ne131591100 2.6 1002838
12:00+10ne141690100 6.6 10021035
15:00+10nne111588100 2.4 10021118
18:00+10nne111488100 4.1 10041057
21:00+10nne91290100 1.8 1006861
19 august, fri
fri1900:00+10nne81091100 3.8 1008746
03:00+10ne6886100 1.1 1008638
06:00+10nne4584100 1.5 1010468
09:00+10ene3381100 0.3 1011432
12:00+11se2277100 0.4 1012507
15:00+11ssw5579100 0.0 1013648
18:00+11ssw667881 0.0 1014630
21:00+11ssw67827 0.0 1015442
20 august, sat
sat2000:00+11ssw578594 0.0 1015514
03:00+10sw57866 0.0 1015352
06:00+10ssw5685100 0.0 1016330
09:00+12sw5683100 0.0 1016356
12:00+12ssw6784100 0.1 1016366
15:00+12ssw6783100 0.0 1015358
18:00+13s6784100 0.0 1015305
21:00+12s5693100 0.0 1015162
21 august, sun
sun2100:00+12s339599 0.0 101473
03:00+11sse2296100 0.0 101272
06:00+11ene3394100 0.0 1011117
09:00+13ene4588100 0.0 1010321
12:00+13s7990100 0.1 1009460
15:00+12s8996100 1.3 1009479
18:00+12s6696100 3.0 1009297
21:00+12s4597100 2.3 1011237
22 august, mon
mon2200:00+12sse5596100 3.5 1012282
03:00+12se4495100 0.4 1013249
06:00+12sse4596100 2.0 1015264
09:00+12sse5692100 0.3 1017407
12:00+12sse6791100 0.4 1018431
15:00+12sse5690100 0.0 1018432
18:00+12sse5690100 0.1 1019408
21:00+12sse5791100 0.1 1020396